{"data":{"norad_id":41586,"intl_designator":"2016-037A","name":"BEIDOU-2 G7 (C03)","alt_names":[],"object_type":"PAYLOAD","status":"ACTIVE","operator":null,"country":"PRC","launch_date":"2016-06-12","launch_site_code":"XICLF","launch_vehicle":null,"mission":null,"orbit_class":"UNKNOWN","rcs_meters":19.0112,"size_class":null,"mass_kg":null,"dimensions":null,"purposes":["comms","nav"],"wikipedia_slug":null,"has_3d_model":false,"image_url":null,"decayed_at":null,"tle_current":{"epoch":"2026-09-20T00:20:23.924256Z","epoch_age_seconds":56272,"freshness":"FRESH","line1":"1 41586U 16037A   26263.01416579 -.00000357  00000+0  00000+0 0  9997","line2":"2 41586   1.9498  69.6707 0005252 353.7734  51.1573  1.00272723  7843","mean_motion":1.00272723,"eccentricity":0.0005252,"inclination_deg":1.9498,"raan_deg":69.6707,"arg_perigee_deg":353.7734,"mean_anomaly_deg":51.1573,"bstar":0,"rev_number":784,"period_min":1436.0834700779,"perigee_km":35764.187228667,"apogee_km":35808.476786913,"semimajor_km":42164.46900779,"source":"CELESTRAK","updated_at":"2026-09-20T09:00:46.674622Z"}}}